GFSNGP_850_dewp_000.txt.gz
Dewpoint
1 -0 -1 0 0 -1 1 2 4 2 0 -1 -1 -1 -0 1 1 1 1 2 2 1 1 -0 -0 -0 0 -0 -5 -7 -3 -3 -4 -4 -5 -5 -6 -7 -7 -8 -10 -11 -11 -11
3 1 -0 2 0 -0 1 1 1 1 1 -2 -1 0 1 1 1 1 2 1 1 1 -2 -2 -2 -0 1 -2 -3 -4 -3 -4 -6 -6 -7 -8 -8 -10 -11 -12 -12 -11 -11 -11
7 2 3 6 2 -0 -1 0 0 2 -1 -1 0 1 2 2 2 2 3 1 -1 -1 -3 -3 -2 1 -2 -3 -3 -2 -4 -6 -6 -6 -9 -10 -11 -13 -12 -12 -11 -11 -11 -10
8 6 7 1 -2 -2 -0 -1 -2 -2 -0 1 1 1 1 2 3 2 2 -0 -2 -3 -4 -3 -1 -1 -3 -3 -3 -4 -5 -6 -5 -7 -9 -11 -12 -12 -12 -12 -11 -11 -10 -10
6 4 2 0 -1 -0 -0 0 -1 1 1 2 2 1 1 2 2 2 0 -2 -3 -4 -4 -3 -2 -2 -3 -4 -4 -5 -5 -5 -5 -8 -9 -12 -12 -12 -11 -11 -11 -10 -10 -10
6 6 6 1 -2 -1 -0 3 2 3 4 3 2 4 3 2 1 -1 -2 -4 -5 -7 -6 -3 -1 -3 -2 -3 -4 -5 -5 -4 -7 -7 -9 -11 -11 -11 -10 -11 -11 -9 -8 -9
5 6 4 -0 -1 -0 5 6 3 3 3 3 3 3 2 1 -1 -4 -5 -6 -7 -8 -8 -5 -4 -3 -3 -4 -6 -7 -7 -7 -7 -8 -10 -10 -11 -10 -10 -10 -9 -9 -10 -10
5 6 6 -1 -0 5 3 3 3 3 3 2 2 2 -1 -4 -6 -7 -6 -7 -8 -8 -8 -7 -5 -4 -4 -7 -8 -7 -7 -7 -7 -8 -10 -10 -10 -10 -10 -9 -9 -10 -10 -11
3 4 -0 0 1 2 2 3 4 3 2 1 -0 -3 -6 -7 -7 -7 -7 -8 -9 -8 -7 -7 -6 -4 -5 -8 -7 -6 -7 -7 -8 -9 -9 -9 -10 -9 -9 -9 -9 -10 -11 -11
3 2 1 3 2 3 4 3 3 1 -0 -2 -4 -7 -7 -7 -8 -7 -9 -9 -8 -8 -8 -7 -6 -3 -4 -5 -5 -6 -8 -8 -8 -9 -9 -8 -9 -9 -10 -9 -10 -11 -11 -12
3 3 3 2 4 4 3 3 1 -0 -2 -5 -7 -7 -8 -8 -9 -10 -9 -8 -8 -8 -8 -8 -7 -3 -4 -5 -7 -9 -9 -9 -8 -7 -7 -8 -9 -10 -9 -10 -12 -13 -12 -12
5 3 3 3 3 2 3 2 -1 -4 -6 -7 -8 -7 -8 -10 -10 -10 -9 -8 -8 -7 -7 -7 -7 -6 -5 -7 -7 -12 -12 -8 -7 -8 -7 -7 -9 -9 -10 -11 -13 -16 -16 -15
3 3 3 3 2 2 0 -3 -4 -6 -6 -6 -7 -9 -9 -9 -9 -8 -7 -7 -7 -6 -5 -6 -5 -5 -7 -7 -11 -13 -13 -11 -7 -7 -8 -8 -8 -9 -9 -10 -11 -12 -14 -15
2 1 2 1 0 -1 -2 -5 -5 -5 -6 -8 -9 -8 -8 -8 -8 -8 -7 -6 -4 -4 -4 -6 -6 -6 -7 -10 -10 -12 -13 -10 -9 -8 -8 -9 -9 -10 -10 -11 -11 -11 -13 -14
1 1 1 -0 -1 -3 -4 -4 -5 -7 -9 -8 -8 -7 -6 -7 -7 -6 -5 -4 -4 -5 -5 -6 -6 -6 -8 -9 -11 -11 -10 -8 -9 -9 -9 -10 -10 -10 -11 -11 -11 -12 -13 -14
-1 -1 -2 -3 -4 -5 -6 -8 -9 -8 -8 -8 -8 -8 -7 -6 -6 -6 -7 -5 -5 -6 -6 -6 -6 -7 -7 -8 -8 -8 -9 -9 -9 -9 -9 -10 -10 -10 -11 -11 -11 -12 -13 -14
-1 -2 -3 -5 -9 -9 -8 -8 -7 -8 -11 -9 -11 -9 -8 -7 -6 -6 -6 -5 -6 -6 -6 -6 -6 -6 -7 -8 -8 -8 -9 -9 -9 -9 -10 -10 -11 -11 -11 -12 -12 -12 -13 -15
-4 -7 -9 -9 -9 -8 -7 -8 -11 -11 -10 -9 -9 -8 -7 -6 -5 -5 -5 -5 -5 -6 -6 -6 -7 -7 -8 -9 -9 -9 -9 -9 -9 -10 -10 -10 -11 -11 -12 -12 -12 -13 -13 -14
-14 -13 -15 -15 -12 -10 -11 -11 -10 -9 -10 -10 -9 -8 -7 -7 -6 -5 -5 -5 -5 -6 -7 -7 -7 -9 -9 -9 -10 -10 -10 -10 -9 -9 -10 -10 -11 -11 -11 -12 -12 -13 -13 -14
-14 -15 -15 -12 -9 -9 -10 -9 -9 -9 -10 -9 -8 -8 -7 -7 -5 -5 -6 -5 -5 -6 -6 -6 -7 -8 -9 -9 -10 -10 -10 -10 -10 -10 -10 -10 -11 -11 -11 -12 -12 -13 -13 -14
-15 -13 -11 -10 -9 -9 -8 -8 -9 -9 -9 -8 -7 -8 -6 -6 -6 -5 -6 -5 -5 -6 -7 -6 -7 -9 -9 -9 -10 -10 -10 -10 -10 -10 -10 -11 -10 -11 -11 -12 -12 -13 -13 -14
-14 -13 -10 -8 -8 -8 -8 -9 -10 -9 -8 -8 -8 -7 -8 -7 -7 -6 -6 -5 -5 -7 -7 -7 -8 -9 -10 -11 -9 -10 -10 -10 -10 -10 -10 -11 -10 -10 -10 -11 -12 -12 -13 -14
-12 -8 -7 -8 -7 -7 -8 -10 -11 -11 -8 -7 -8 -6 -6 -7 -6 -6 -6 -5 -6 -7 -7 -7 -10 -12 -12 -11 -9 -10 -10 -10 -10 -10 -10 -10 -10 -11 -11 -11 -11 -12 -12 -13
-8 -7 -7 -7 -7 -7 -8 -10 -10 -11 -9 -8 -7 -6 -6 -6 -6 -6 -6 -5 -6 -7 -6 -8 -9 -10 -10 -10 -10 -10 -10 -10 -10 -10 -10 -10 -11 -11 -11 -11 -12 -12 -12 -12
-8 -7 -6 -7 -7 -6 -7 -8 -10 -10 -7 -6 -6 -6 -6 -6 -6 -6 -6 -5 -6 -6 -7 -7 -7 -9 -9 -9 -10 -10 -10 -11 -11 -11 -10 -10 -10 -11 -12 -12 -12 -12 -12 -12
-8 -7 -6 -7 -8 -7 -7 -7 -9 -8 -6 -6 -6 -6 -6 -6 -6 -6 -6 -6 -6 -7 -7 -7 -7 -8 -9 -9 -10 -10 -11 -11 -11 -12 -12 -12 -12 -12 -12 -12 -12 -12 -12 -12
-7 -7 -9 -9 -8 -7 -7 -6 -7 -7 -6 -7 -7 -7 -6 -6 -6 -6 -6 -6 -6 -6 -7 -6 -7 -8 -9 -9 -10 -11 -11 -12 -13 -13 -13 -13 -13 -13 -13 -13 -12 -12 -12 -12

GFSNGP_850_dewp_006.txt.gz
Dewpoint
-0 -3 -4 -4 -3 -4 -3 -2 2 1 -1 -2 -1 -1 1 1 1 2 2 2 2 1 0 -1 -2 -3 -4 -4 -4 -1 -1 -1 -4 -4 -5 -6 -6 -7 -8 -10 -12 -12 -12 -11
3 -2 -2 -1 -3 -3 -4 -4 -3 -1 -1 -2 0 1 1 2 2 2 2 1 -0 -0 -2 -3 -4 -6 -7 -7 -6 -3 -2 -3 -3 -2 -5 -5 -5 -7 -8 -11 -11 -12 -11 -11
7 3 4 7 4 -2 -3 -3 -2 2 -0 -0 1 1 1 2 2 2 0 -0 -1 -2 -4 -6 -8 -9 -10 -9 -9 -7 -6 -5 -4 -2 -3 -4 -5 -6 -8 -10 -12 -12 -11 -10
8 7 8 1 -3 -3 -2 -3 -3 -3 -1 1 1 1 1 2 2 -0 -0 -1 -3 -6 -7 -8 -8 -10 -11 -11 -10 -10 -9 -7 -3 -3 -5 -4 -5 -5 -6 -10 -12 -11 -10 -9
9 5 2 0 -1 -0 1 1 -2 1 2 2 1 1 0 0 -0 -1 -2 -5 -8 -9 -8 -10 -11 -11 -10 -10 -10 -10 -10 -6 -4 -5 -5 -7 -5 -5 -8 -11 -11 -10 -9 -9
6 6 6 2 -1 -1 -1 4 2 3 3 2 1 3 1 0 -1 -4 -7 -8 -9 -10 -11 -12 -11 -11 -11 -11 -11 -11 -6 -5 -4 -5 -5 -5 -5 -7 -10 -11 -10 -9 -10 -10
7 6 5 -1 -1 -0 4 5 3 4 3 3 2 2 2 -2 -4 -7 -8 -9 -10 -12 -12 -12 -11 -11 -11 -11 -11 -7 -4 -4 -4 -4 -6 -6 -7 -11 -11 -11 -11 -10 -9 -10
5 6 5 -1 -1 3 4 3 3 3 3 3 3 3 -2 -4 -7 -8 -9 -10 -12 -12 -12 -12 -11 -11 -10 -10 -9 -6 -6 -4 -5 -6 -7 -7 -10 -11 -11 -11 -10 -9 -10 -11
5 5 1 0 1 3 3 4 3 3 2 2 2 -0 -4 -6 -8 -8 -9 -11 -11 -11 -11 -11 -10 -10 -9 -8 -8 -6 -7 -6 -6 -7 -8 -9 -10 -11 -11 -10 -10 -11 -11 -12
5 1 -1 0 -0 3 4 3 2 2 2 2 -1 -4 -6 -7 -8 -9 -10 -10 -11 -10 -11 -10 -10 -9 -8 -7 -7 -6 -6 -6 -7 -8 -9 -9 -9 -10 -10 -10 -10 -10 -11 -13
3 1 0 1 4 4 4 2 3 2 1 -3 -4 -6 -6 -8 -9 -10 -10 -10 -10 -10 -11 -9 -9 -8 -6 -6 -7 -5 -6 -7 -9 -8 -8 -8 -8 -9 -9 -9 -9 -10 -12 -11
5 2 3 4 4 3 3 3 1 0 -3 -4 -5 -7 -9 -9 -10 -10 -10 -11 -11 -10 -9 -8 -7 -6 -6 -6 -6 -7 -7 -10 -9 -8 -8 -9 -8 -8 -9 -10 -9 -11 -10 -11
0 3 4 4 3 2 1 -1 -2 -3 -4 -6 -8 -10 -10 -10 -11 -10 -10 -9 -8 -7 -7 -6 -5 -5 -5 -5 -5 -8 -9 -10 -8 -8 -7 -7 -8 -9 -9 -9 -10 -10 -10 -12
3 3 3 3 2 2 -1 -3 -4 -5 -8 -10 -10 -10 -10 -10 -9 -9 -8 -7 -7 -6 -5 -5 -5 -4 -5 -5 -5 -7 -8 -8 -9 -8 -8 -8 -8 -9 -9 -10 -10 -11 -10 -11
2 3 2 1 1 -2 -4 -5 -8 -10 -10 -10 -10 -10 -8 -8 -8 -8 -8 -9 -6 -7 -6 -5 -5 -5 -6 -5 -6 -7 -7 -7 -8 -9 -8 -8 -9 -9 -9 -10 -10 -11 -10 -11
2 1 -1 -2 -4 -5 -7 -9 -10 -9 -9 -9 -8 -9 -7 -10 -11 -11 -11 -8 -9 -10 -8 -5 -5 -5 -6 -6 -6 -7 -8 -7 -8 -9 -8 -9 -9 -9 -9 -10 -10 -11 -11 -11
1 -1 -3 -3 -6 -8 -9 -9 -8 -7 -11 -9 -10 -10 -11 -12 -11 -11 -10 -10 -9 -9 -6 -5 -5 -5 -6 -6 -6 -8 -8 -7 -8 -8 -9 -9 -9 -9 -10 -10 -10 -11 -11 -11
-1 -2 -5 -8 -9 -9 -8 -7 -10 -10 -10 -10 -10 -10 -12 -11 -10 -10 -9 -9 -9 -9 -6 -5 -5 -6 -6 -7 -7 -7 -7 -9 -9 -9 -9 -9 -9 -10 -10 -10 -10 -11 -11 -12
-6 -8 -9 -9 -8 -8 -9 -13 -13 -10 -11 -11 -10 -11 -11 -11 -10 -9 -9 -7 -6 -7 -6 -6 -5 -5 -6 -7 -10 -10 -9 -9 -9 -9 -9 -9 -9 -10 -10 -10 -10 -10 -11 -11
-9 -9 -9 -10 -13 -19 -19 -16 -11 -9 -10 -9 -9 -10 -11 -11 -10 -9 -8 -6 -5 -5 -5 -6 -5 -6 -6 -7 -11 -12 -10 -9 -9 -9 -10 -10 -10 -10 -10 -10 -10 -10 -11 -11
-11 -11 -11 -14 -20 -21 -16 -11 -9 -10 -9 -9 -9 -9 -9 -10 -8 -6 -6 -6 -7 -5 -5 -5 -6 -6 -7 -8 -8 -9 -10 -9 -9 -10 -10 -10 -10 -10 -10 -10 -10 -10 -10 -11
-10 -12 -19 -21 -19 -15 -12 -10 -10 -8 -9 -10 -9 -7 -8 -7 -6 -6 -6 -6 -6 -5 -6 -7 -6 -7 -6 -7 -7 -8 -10 -9 -9 -10 -10 -9 -10 -9 -10 -10 -10 -10 -11 -11
-12 -17 -17 -15 -13 -11 -10 -10 -9 -9 -9 -8 -6 -6 -6 -6 -6 -6 -7 -6 -6 -5 -6 -6 -6 -6 -6 -8 -9 -12 -12 -9 -9 -9 -10 -9 -9 -10 -10 -10 -10 -11 -11 -11
-12 -12 -11 -11 -10 -9 -8 -9 -7 -6 -5 -5 -5 -5 -6 -6 -6 -6 -7 -6 -6 -6 -6 -6 -6 -6 -6 -7 -9 -9 -9 -10 -10 -10 -10 -10 -10 -10 -10 -10 -10 -10 -11 -11
-11 -11 -10 -10 -7 -6 -6 -5 -6 -6 -7 -6 -5 -5 -6 -6 -6 -7 -7 -7 -7 -6 -6 -6 -6 -6 -6 -6 -7 -8 -8 -9 -9 -10 -10 -10 -10 -10 -10 -10 -10 -10 -10 -11
-8 -7 -6 -6 -6 -7 -7 -7 -7 -7 -6 -6 -7 -7 -7 -7 -7 -7 -7 -7 -7 -7 -6 -6 -6 -6 -6 -7 -7 -7 -7 -8 -9 -9 -10 -10 -11 -10 -10 -10 -10 -11 -11 -11
-7 -6 -5 -5 -5 -7 -7 -7 -6 -6 -5 -6 -6 -7 -7 -7 -7 -7 -7 -7 -7 -7 -7 -6 -6 -6 -6 -6 -7 -7 -7 -8 -8 -9 -10 -10 -11 -12 -12 -12 -12 -13 -14 -15

GFSNGP_850_dewp_009.txt.gz
Dewpoint
1 -1 -2 -3 -2 -2 -2 -1 2 1 2 3 3 2 2 2 2 2 1 1 -0 -2 -3 -3 -5 -7 -8 -9 -9 -10 -10 -8 -7 -4 -2 -2 -1 -4 -3 -6 -10 -11 -11 -12
2 1 1 1 -0 -1 -2 -2 -2 -1 1 1 1 1 1 2 2 0 -0 -1 -2 -3 -3 -6 -7 -8 -9 -10 -10 -11 -11 -11 -9 -5 -3 -3 -1 -2 -5 -7 -9 -10 -12 -11
5 4 4 3 2 0 -1 -1 -2 1 1 2 2 1 2 2 0 -1 -1 -3 -5 -5 -8 -8 -9 -10 -10 -10 -11 -12 -11 -10 -6 -5 -6 -5 -5 -3 -5 -5 -8 -11 -11 -10
2 1 1 3 -1 -2 0 -0 -1 2 2 2 1 2 2 1 -0 -2 -3 -5 -7 -8 -9 -10 -11 -11 -11 -11 -12 -12 -11 -9 -8 -6 -7 -6 -4 -3 -5 -8 -10 -11 -10 -10
4 4 1 1 -0 1 1 1 3 4 3 2 1 1 1 0 -2 -3 -6 -7 -9 -10 -12 -12 -12 -12 -12 -12 -12 -11 -9 -8 -8 -6 -6 -4 -4 -4 -8 -10 -10 -10 -10 -11
3 1 1 1 0 -1 -0 3 4 3 3 2 1 1 1 -0 -2 -5 -7 -8 -9 -11 -12 -12 -12 -12 -12 -11 -10 -10 -9 -8 -7 -6 -5 -6 -7 -7 -10 -10 -11 -11 -11 -10
4 0 2 2 -0 -1 3 2 4 4 3 3 2 2 2 -1 -5 -6 -8 -9 -10 -11 -11 -11 -11 -12 -11 -10 -9 -8 -8 -7 -8 -7 -6 -7 -7 -9 -10 -11 -11 -10 -10 -10
3 2 3 -1 -0 1 2 4 4 3 3 3 2 2 0 -4 -5 -7 -8 -10 -11 -11 -11 -11 -11 -10 -10 -8 -8 -7 -7 -7 -6 -7 -6 -7 -7 -9 -10 -10 -10 -10 -10 -12
3 2 -1 -0 -1 0 1 3 3 3 2 1 1 1 -3 -5 -7 -9 -9 -10 -10 -10 -10 -10 -10 -9 -8 -7 -7 -6 -7 -7 -6 -7 -8 -9 -9 -9 -9 -10 -9 -10 -11 -11
3 2 1 1 2 2 3 3 3 2 1 -0 1 -3 -5 -6 -9 -9 -10 -10 -10 -11 -10 -10 -9 -8 -7 -6 -6 -7 -8 -8 -8 -8 -9 -8 -8 -9 -9 -9 -9 -10 -10 -12
2 2 1 3 3 4 4 3 3 3 1 1 -4 -5 -8 -9 -10 -10 -11 -11 -11 -10 -9 -9 -7 -7 -7 -6 -6 -6 -6 -7 -9 -11 -10 -10 -9 -8 -8 -9 -10 -10 -11 -11
2 2 3 4 4 4 3 2 2 2 -2 -4 -5 -9 -10 -10 -10 -11 -10 -10 -11 -12 -12 -9 -6 -7 -7 -5 -5 -5 -5 -8 -10 -11 -10 -8 -7 -7 -8 -9 -10 -11 -11 -11
1 3 3 4 3 2 1 -0 -2 -3 -4 -8 -10 -10 -10 -10 -10 -10 -13 -14 -12 -11 -11 -9 -8 -5 -5 -5 -5 -5 -6 -7 -8 -10 -10 -9 -8 -8 -8 -11 -10 -11 -11 -10
1 3 3 2 2 2 -2 -2 -3 -5 -10 -10 -10 -10 -10 -11 -13 -14 -14 -12 -11 -11 -11 -10 -11 -7 -5 -5 -5 -5 -6 -7 -8 -7 -7 -10 -9 -9 -9 -10 -10 -11 -11 -10
2 2 2 2 2 -0 -2 -5 -8 -10 -10 -10 -10 -12 -14 -15 -13 -13 -12 -11 -11 -10 -10 -10 -9 -7 -6 -5 -6 -6 -6 -7 -7 -7 -7 -9 -9 -9 -9 -10 -10 -11 -11 -11
2 1 1 1 -2 -5 -7 -9 -9 -9 -9 -9 -15 -15 -14 -12 -11 -12 -12 -12 -9 -11 -11 -9 -7 -6 -5 -5 -6 -7 -7 -7 -7 -7 -8 -10 -9 -9 -10 -10 -10 -10 -11 -11
1 0 -1 -4 -6 -8 -9 -9 -9 -8 -10 -16 -14 -12 -10 -10 -12 -13 -13 -12 -12 -11 -9 -7 -6 -6 -6 -6 -6 -7 -7 -7 -7 -7 -8 -10 -9 -10 -10 -10 -10 -10 -11 -11
1 0 -2 -5 -8 -9 -9 -9 -10 -17 -16 -13 -10 -11 -10 -10 -10 -11 -11 -11 -12 -10 -8 -6 -6 -6 -6 -6 -7 -7 -7 -8 -8 -8 -9 -9 -9 -9 -10 -10 -10 -11 -11 -11
-1 -5 -8 -8 -9 -9 -12 -17 -19 -16 -12 -10 -11 -11 -10 -9 -9 -9 -10 -7 -7 -7 -8 -6 -6 -5 -6 -6 -6 -7 -9 -11 -10 -9 -9 -10 -10 -9 -10 -10 -10 -10 -11 -11
-8 -8 -9 -10 -12 -17 -22 -23 -17 -13 -12 -11 -10 -10 -10 -10 -8 -9 -6 -6 -6 -7 -6 -6 -6 -6 -7 -6 -6 -8 -10 -11 -12 -10 -10 -10 -10 -10 -10 -10 -10 -10 -11 -11
-9 -11 -11 -13 -20 -25 -19 -15 -13 -13 -12 -10 -10 -11 -8 -8 -7 -6 -6 -6 -7 -7 -6 -7 -6 -6 -6 -6 -6 -7 -8 -8 -9 -9 -9 -10 -10 -10 -10 -10 -10 -10 -11 -11
-10 -10 -14 -21 -19 -17 -15 -13 -13 -12 -10 -10 -10 -8 -7 -6 -6 -6 -7 -7 -7 -7 -7 -7 -7 -7 -6 -6 -7 -7 -8 -8 -10 -10 -10 -10 -10 -10 -10 -9 -10 -10 -11 -11
-10 -11 -15 -16 -14 -14 -13 -13 -10 -7 -8 -7 -7 -6 -6 -6 -6 -7 -7 -6 -7 -7 -7 -7 -7 -7 -6 -6 -7 -7 -8 -9 -11 -10 -10 -10 -10 -10 -10 -10 -10 -10 -11 -11
-10 -11 -12 -13 -12 -11 -11 -10 -8 -6 -6 -6 -6 -6 -5 -5 -7 -7 -6 -7 -7 -7 -7 -7 -7 -7 -7 -7 -6 -6 -6 -8 -8 -8 -9 -10 -10 -10 -10 -10 -10 -10 -10 -11
-13 -13 -11 -10 -10 -10 -9 -9 -8 -9 -8 -6 -6 -5 -5 -6 -7 -7 -7 -8 -7 -7 -7 -7 -7 -7 -7 -7 -7 -7 -7 -7 -7 -7 -8 -9 -10 -10 -10 -10 -10 -10 -10 -11
-10 -9 -9 -8 -7 -7 -8 -9 -7 -7 -6 -6 -5 -4 -5 -7 -7 -7 -8 -7 -8 -8 -7 -7 -8 -8 -7 -7 -7 -7 -7 -7 -7 -7 -7 -8 -9 -10 -10 -10 -10 -10 -11 -11
-7 -7 -7 -8 -10 -9 -10 -8 -7 -7 -7 -5 -5 -5 -7 -7 -7 -8 -8 -8 -8 -8 -8 -8 -8 -7 -7 -7 -7 -7 -7 -7 -7 -7 -7 -8 -9 -9 -10 -11 -10 -11 -11 -11

GFSNGP_850_dewp_012.txt.gz
Dewpoint
-0 0 -2 -2 -2 -2 -1 1 2 1 2 3 3 2 2 2 2 1 1 -2 -6 -6 -4 -6 -7 -8 -9 -9 -10 -11 -11 -13 -14 -15 -10 -9 -9 -8 -3 -6 -6 -10 -9 -8
1 2 3 -0 -0 0 -1 -2 -1 -1 4 2 2 2 2 2 1 0 -1 -6 -7 -7 -5 -8 -10 -10 -10 -11 -11 -12 -13 -13 -12 -12 -9 -9 -8 -4 -3 -6 -8 -5 -7 -11
2 3 3 1 1 1 -1 -1 -1 0 2 2 2 2 2 1 0 -1 -4 -6 -7 -7 -9 -11 -11 -11 -12 -12 -12 -12 -11 -11 -11 -10 -9 -9 -7 -4 -3 -3 -5 -8 -10 -10
0 -2 -3 0 -1 -1 -0 1 3 3 2 1 2 2 1 0 -0 -3 -4 -7 -8 -9 -11 -12 -12 -12 -12 -12 -11 -11 -11 -10 -10 -9 -8 -9 -5 -6 -5 -6 -7 -10 -9 -10
-2 2 -3 -1 0 0 -1 1 3 3 2 1 2 1 -0 -0 -2 -4 -6 -8 -9 -10 -11 -12 -12 -11 -11 -12 -10 -10 -10 -9 -8 -8 -8 -8 -7 -6 -6 -7 -9 -10 -10 -10
3 -3 -4 -3 0 -1 -1 3 3 3 3 2 1 1 0 -0 -0 -6 -7 -8 -10 -11 -11 -11 -11 -11 -11 -11 -10 -9 -8 -8 -7 -7 -7 -6 -7 -7 -8 -9 -10 -10 -10 -10
-1 -1 0 -1 -0 -1 2 0 4 3 3 2 1 -0 1 -0 -5 -6 -7 -9 -11 -10 -10 -10 -10 -10 -10 -10 -9 -8 -7 -6 -7 -7 -6 -7 -7 -7 -7 -8 -10 -10 -10 -10
0 -1 2 -1 0 1 -0 3 3 3 3 2 2 2 -0 -2 -6 -7 -9 -9 -10 -10 -10 -11 -10 -10 -9 -8 -7 -6 -6 -6 -8 -7 -7 -8 -8 -8 -9 -9 -9 -9 -10 -11
2 2 -2 -1 -1 -2 -0 2 3 3 2 2 -0 1 -0 -5 -7 -9 -9 -10 -10 -11 -11 -11 -10 -11 -8 -7 -6 -7 -6 -6 -7 -8 -8 -8 -8 -7 -8 -9 -9 -9 -11 -11
2 1 1 -1 0 0 2 2 3 3 2 1 -0 1 -5 -8 -9 -9 -10 -10 -11 -12 -14 -15 -14 -11 -8 -8 -9 -8 -5 -5 -6 -8 -10 -10 -9 -8 -8 -8 -8 -10 -11 -12
1 1 3 2 2 2 3 3 3 2 2 1 -1 -6 -8 -9 -10 -10 -10 -11 -13 -17 -16 -14 -13 -12 -11 -11 -7 -5 -5 -5 -5 -9 -10 -11 -9 -7 -7 -8 -9 -11 -11 -11
2 -0 0 1 2 3 3 3 3 3 -1 -5 -5 -8 -9 -10 -10 -11 -11 -15 -18 -16 -14 -13 -12 -13 -11 -8 -6 -6 -5 -5 -5 -7 -9 -10 -9 -8 -8 -8 -10 -11 -11 -11
1 2 1 1 3 4 3 1 2 1 -4 -5 -9 -10 -10 -11 -12 -12 -18 -16 -15 -14 -12 -12 -11 -11 -9 -8 -6 -6 -5 -6 -6 -7 -7 -7 -9 -9 -9 -10 -11 -10 -11 -12
0 2 4 3 3 2 1 -2 -3 -5 -8 -9 -10 -10 -11 -15 -18 -18 -16 -14 -13 -12 -12 -11 -11 -9 -8 -6 -6 -5 -6 -7 -7 -7 -7 -7 -8 -9 -9 -10 -10 -11 -11 -11
1 2 2 3 2 -0 -2 -4 -6 -9 -10 -10 -9 -10 -15 -18 -16 -14 -12 -12 -12 -12 -12 -13 -11 -8 -6 -6 -6 -6 -7 -7 -7 -7 -7 -8 -9 -10 -10 -10 -10 -11 -11 -12
3 3 2 2 -1 -2 -2 -4 -8 -9 -9 -9 -11 -17 -16 -15 -13 -11 -10 -11 -12 -12 -13 -13 -10 -7 -6 -6 -6 -6 -7 -7 -7 -7 -8 -8 -9 -10 -10 -10 -10 -11 -11 -11
2 2 1 -2 -2 -3 -5 -9 -9 -9 -11 -14 -17 -14 -13 -12 -10 -10 -10 -10 -11 -10 -10 -9 -7 -6 -6 -6 -6 -6 -7 -7 -8 -8 -8 -9 -9 -10 -10 -10 -10 -11 -11 -11
2 1 -0 -0 -1 -3 -4 -9 -11 -13 -17 -19 -13 -11 -11 -11 -10 -10 -10 -10 -11 -9 -8 -6 -6 -6 -6 -6 -6 -6 -7 -7 -8 -9 -9 -9 -10 -9 -10 -10 -11 -11 -11 -11
1 1 -0 -1 -3 -10 -12 -13 -17 -22 -19 -12 -11 -11 -11 -11 -10 -9 -8 -9 -8 -8 -8 -7 -6 -6 -7 -6 -6 -6 -6 -7 -10 -12 -11 -10 -10 -10 -10 -10 -10 -10 -11 -11
0 -2 -7 -10 -12 -13 -21 -22 -18 -16 -14 -12 -12 -11 -11 -11 -9 -7 -7 -8 -7 -7 -7 -8 -7 -7 -7 -7 -7 -6 -6 -8 -9 -9 -10 -10 -10 -10 -10 -10 -10 -10 -11 -11
-9 -11 -11 -14 -21 -20 -17 -16 -16 -14 -12 -11 -10 -11 -11 -10 -8 -7 -7 -7 -8 -6 -7 -7 -7 -7 -7 -7 -7 -7 -7 -7 -8 -8 -8 -9 -10 -10 -10 -10 -10 -10 -10 -11
-10 -10 -11 -15 -17 -16 -15 -14 -13 -12 -9 -9 -9 -8 -8 -8 -7 -6 -6 -7 -7 -7 -7 -7 -7 -7 -7 -7 -7 -7 -7 -7 -7 -8 -8 -8 -9 -10 -10 -10 -10 -10 -10 -11
-11 -10 -10 -12 -13 -14 -14 -14 -11 -9 -8 -7 -6 -6 -6 -6 -5 -5 -6 -7 -7 -8 -8 -8 -7 -7 -7 -7 -7 -7 -7 -7 -7 -7 -8 -8 -9 -9 -11 -11 -10 -10 -10 -11
-9 -10 -12 -12 -11 -11 -11 -11 -9 -8 -8 -8 -8 -7 -6 -5 -5 -5 -6 -7 -8 -8 -8 -8 -8 -8 -8 -8 -7 -7 -7 -7 -7 -7 -7 -7 -8 -8 -9 -10 -10 -10 -10 -10
-11 -11 -10 -9 -9 -9 -9 -10 -9 -9 -9 -9 -9 -7 -5 -5 -5 -6 -7 -7 -8 -8 -8 -8 -8 -8 -8 -8 -8 -8 -7 -7 -7 -7 -7 -7 -7 -7 -8 -9 -10 -10 -10 -10
-8 -7 -8 -8 -8 -9 -9 -9 -9 -9 -9 -9 -9 -9 -8 -7 -6 -7 -7 -8 -8 -8 -8 -8 -9 -9 -8 -8 -8 -8 -8 -8 -8 -8 -7 -7 -7 -7 -8 -8 -9 -10 -10 -10
-7 -7 -7 -6 -7 -7 -7 -7 -8 -7 -7 -6 -6 -8 -7 -7 -8 -8 -8 -8 -8 -8 -9 -9 -10 -9 -9 -9 -9 -9 -9 -8 -8 -8 -8 -7 -8 -8 -8 -8 -9 -10 -11 -11

GFSNGP_850_dewp_015.txt.gz
Dewpoint
1 1 -1 -2 -3 1 2 1 1 0 1 -0 3 2 2 2 2 1 0 -2 -6 -7 -6 -6 -7 -8 -9 -10 -11 -12 -12 -12 -12 -12 -10 -10 -9 -10 -8 -3 -3 -4 -6 -10
2 2 2 -1 -2 -2 -1 -2 1 -0 1 2 2 2 2 2 1 0 -0 -4 -6 -7 -7 -7 -8 -10 -11 -12 -12 -12 -12 -12 -11 -10 -9 -9 -8 -10 -7 -5 -4 -5 -6 -8
-2 2 0 -3 -1 1 -1 -1 -1 1 1 2 2 2 2 1 1 1 -2 -5 -7 -7 -8 -10 -11 -12 -12 -12 -11 -11 -11 -10 -10 -9 -8 -7 -8 -8 -7 -7 -6 -6 -6 -8
-1 -2 -4 -4 -2 -1 -1 0 2 2 2 2 2 2 2 1 1 -0 -2 -6 -7 -8 -10 -11 -12 -12 -11 -11 -11 -11 -11 -9 -8 -8 -7 -7 -8 -7 -6 -6 -7 -7 -8 -9
-1 0 -4 -5 -0 0 0 -0 2 2 1 1 2 2 1 1 -0 -2 -5 -7 -8 -10 -11 -11 -11 -11 -10 -10 -10 -10 -9 -9 -8 -7 -7 -7 -7 -7 -7 -7 -8 -9 -8 -8
1 -4 -6 -6 -0 -1 -2 2 2 2 2 2 1 1 1 0 -1 -2 -6 -8 -9 -10 -11 -11 -10 -10 -10 -10 -10 -10 -9 -7 -6 -6 -8 -7 -7 -7 -7 -7 -7 -7 -8 -10
-3 -3 -1 -3 -0 -1 1 -2 3 2 2 2 1 1 -0 1 -0 -5 -7 -8 -10 -10 -10 -10 -11 -11 -11 -12 -12 -9 -7 -7 -6 -7 -7 -8 -8 -8 -8 -8 -8 -9 -9 -10
1 -0 -0 -3 -0 1 -0 -2 1 2 2 2 1 1 1 0 -6 -7 -8 -9 -10 -10 -10 -12 -13 -15 -16 -15 -10 -8 -8 -9 -6 -6 -6 -8 -8 -8 -8 -8 -9 -9 -9 -11
1 1 -2 -1 -1 -1 -2 -2 2 2 3 3 2 2 1 -1 -6 -8 -9 -9 -10 -10 -13 -16 -18 -17 -15 -13 -12 -12 -10 -7 -5 -5 -5 -9 -9 -8 -8 -9 -8 -8 -10 -11
1 -1 -0 -2 -1 -0 -1 -1 0 2 3 2 1 0 1 -3 -8 -9 -9 -10 -11 -13 -18 -19 -17 -16 -12 -12 -12 -10 -8 -6 -6 -5 -6 -9 -10 -9 -8 -8 -8 -8 -10 -11
1 1 1 1 -0 -1 -0 1 2 3 3 2 0 1 -1 -7 -9 -10 -11 -12 -14 -18 -18 -16 -15 -13 -12 -12 -10 -8 -7 -6 -6 -5 -6 -8 -11 -8 -8 -8 -8 -9 -11 -11
1 -2 0 -0 -0 1 1 2 3 3 2 1 2 -2 -8 -9 -10 -12 -13 -16 -18 -17 -16 -15 -14 -13 -12 -10 -9 -7 -6 -6 -6 -6 -7 -7 -8 -8 -8 -9 -9 -10 -10 -11
-2 -2 -1 0 1 1 2 3 3 3 3 -3 -7 -8 -9 -10 -13 -16 -18 -18 -17 -15 -14 -13 -14 -14 -12 -10 -8 -6 -7 -6 -7 -6 -7 -7 -8 -8 -9 -10 -10 -10 -11 -11
-0 2 3 2 2 3 3 3 3 -1 -6 -3 -3 -10 -10 -13 -16 -18 -18 -16 -14 -13 -13 -13 -13 -14 -11 -7 -6 -6 -6 -7 -7 -8 -8 -8 -8 -8 -9 -10 -10 -11 -11 -11
1 1 1 1 3 3 3 1 -3 -6 -1 -4 -9 -10 -13 -17 -18 -18 -15 -12 -12 -12 -12 -12 -13 -12 -7 -7 -6 -6 -6 -7 -7 -8 -8 -8 -8 -9 -9 -10 -10 -11 -11 -11
2 3 3 3 3 -0 -3 -7 -3 0 -6 -9 -10 -14 -17 -19 -17 -14 -12 -11 -11 -11 -12 -11 -10 -8 -7 -7 -6 -7 -7 -7 -7 -8 -8 -9 -9 -10 -9 -10 -10 -11 -11 -11
3 3 2 -1 -4 -5 -2 0 -1 -7 -9 -13 -15 -19 -18 -15 -14 -13 -12 -11 -10 -11 -10 -8 -8 -7 -7 -6 -7 -6 -7 -7 -7 -8 -8 -9 -10 -10 -9 -10 -10 -11 -11 -11
2 2 -1 -2 -1 0 -0 -1 -8 -12 -14 -19 -20 -16 -15 -14 -12 -12 -10 -10 -10 -8 -8 -7 -7 -8 -7 -7 -7 -7 -7 -7 -7 -8 -8 -9 -10 -10 -10 -10 -10 -10 -11 -11
-1 -1 -0 -1 -3 -3 -7 -13 -16 -21 -21 -18 -15 -13 -12 -11 -11 -10 -9 -9 -9 -8 -8 -7 -7 -7 -8 -8 -7 -7 -7 -7 -7 -7 -10 -11 -11 -10 -10 -10 -10 -10 -11 -11
-2 -3 -4 -11 -13 -14 -19 -21 -20 -18 -16 -14 -12 -11 -10 -11 -11 -9 -8 -8 -8 -7 -8 -7 -7 -7 -7 -8 -8 -8 -7 -7 -7 -7 -8 -8 -9 -10 -10 -10 -10 -10 -11 -10
-10 -12 -13 -16 -19 -20 -19 -18 -15 -12 -11 -10 -9 -10 -10 -10 -9 -7 -6 -6 -7 -7 -7 -7 -8 -7 -7 -8 -8 -7 -7 -7 -7 -7 -8 -8 -8 -8 -9 -9 -10 -10 -10 -10
-9 -9 -10 -11 -12 -13 -11 -10 -10 -11 -11 -11 -9 -8 -7 -8 -7 -6 -5 -5 -5 -6 -7 -8 -8 -8 -8 -8 -8 -8 -8 -8 -7 -8 -8 -7 -8 -8 -8 -8 -9 -10 -10 -10
-6 -6 -8 -11 -12 -12 -13 -13 -11 -10 -9 -9 -9 -9 -9 -9 -8 -6 -6 -5 -5 -7 -8 -8 -8 -8 -9 -9 -8 -8 -8 -8 -8 -8 -7 -7 -7 -7 -7 -8 -8 -9 -11 -11
-12 -12 -11 -10 -9 -10 -10 -11 -10 -9 -10 -10 -11 -10 -9 -9 -9 -10 -7 -6 -7 -8 -8 -8 -8 -9 -9 -9 -9 -8 -8 -7 -7 -7 -7 -7 -7 -7 -7 -7 -7 -8 -9 -10
-8 -7 -7 -7 -7 -7 -8 -8 -8 -9 -9 -9 -10 -9 -8 -8 -8 -9 -8 -8 -8 -8 -8 -8 -9 -9 -9 -10 -9 -9 -9 -9 -9 -9 -8 -8 -8 -8 -8 -8 -8 -8 -8 -9
-6 -6 -7 -6 -6 -6 -6 -6 -7 -6 -6 -6 -7 -7 -6 -6 -7 -6 -6 -7 -7 -8 -8 -8 -9 -9 -11 -11 -12 -11 -11 -12 -12 -12 -10 -9 -9 -9 -8 -8 -8 -8 -8 -9
-10 -10 -11 -10 -9 -8 -7 -6 -6 -6 -6 -6 -6 -6 -6 -7 -9 -9 -9 -7 -7 -8 -8 -9 -9 -10 -12 -13 -13 -13 -13 -14 -14 -14 -14 -12 -11 -9 -9 -8 -8 -8 -9 -9

GFSNGP_850_dewp_018.txt.gz
Dewpoint
1 1 -1 -3 -2 1 0 -1 1 -1 -1 -3 2 2 2 2 2 1 1 0 -2 -5 -5 -5 -5 -7 -8 -10 -11 -12 -11 -11 -11 -11 -10 -9 -8 -8 -9 -9 -7 -4 -4 -4
2 2 1 0 -2 -2 0 -0 1 1 0 -3 -0 1 2 2 2 1 1 -0 -4 -6 -6 -4 -6 -8 -10 -11 -12 -11 -11 -11 -10 -10 -9 -8 -7 -8 -8 -7 -7 -7 -5 -5
-3 1 -2 -2 -2 -1 -2 -2 -2 -0 -2 2 2 2 2 2 2 1 1 -1 -5 -6 -7 -8 -9 -11 -12 -12 -11 -10 -11 -10 -10 -9 -8 -8 -7 -7 -7 -6 -6 -7 -7 -8
-2 -3 -3 -4 -2 -2 -1 -1 -2 0 0 2 2 2 2 2 2 1 1 -2 -5 -7 -8 -9 -11 -12 -12 -11 -10 -11 -10 -11 -9 -8 -7 -7 -8 -8 -8 -7 -7 -8 -8 -8
-2 -1 -4 -7 -4 0 0 -1 1 1 1 2 2 2 2 2 2 1 -0 -3 -6 -7 -9 -11 -11 -11 -10 -10 -12 -12 -14 -11 -8 -7 -9 -8 -8 -8 -8 -7 -7 -7 -7 -7
-2 -4 -6 -6 -3 -1 -2 2 -1 1 1 2 1 2 2 1 1 0 -2 -4 -7 -8 -10 -11 -10 -10 -11 -14 -15 -15 -10 -9 -10 -10 -8 -7 -7 -8 -8 -7 -8 -8 -7 -8
-4 -3 -2 -5 -1 -2 1 -1 0 1 1 2 1 1 0 1 1 -0 -1 -5 -8 -10 -10 -10 -10 -13 -16 -17 -15 -12 -12 -14 -14 -11 -6 -5 -6 -8 -8 -8 -8 -8 -8 -8
-1 -2 -0 -4 -0 0 -0 -4 -2 0 0 1 0 1 1 0 0 -0 -5 -7 -10 -10 -10 -11 -14 -18 -18 -16 -15 -14 -15 -15 -13 -9 -6 -6 -6 -9 -9 -8 -8 -9 -9 -9
-0 0 -4 -2 -0 -1 -2 -3 -2 -1 -2 0 1 1 1 1 -1 -6 -6 -9 -9 -10 -11 -15 -19 -18 -17 -16 -15 -14 -14 -12 -11 -8 -7 -6 -6 -9 -9 -8 -8 -8 -8 -9
-0 -2 -1 -3 -3 -2 -1 -1 -1 -0 -1 0 2 2 2 1 -3 -2 -8 -10 -10 -12 -16 -19 -18 -17 -15 -15 -14 -13 -11 -9 -8 -6 -6 -6 -6 -9 -11 -8 -8 -8 -9 -10
0 -0 -1 -2 -2 -2 -2 -2 -1 -1 1 2 3 2 1 -1 0 -7 -9 -11 -13 -18 -18 -17 -16 -15 -15 -14 -13 -12 -9 -8 -7 -6 -6 -6 -7 -9 -9 -8 -9 -9 -9 -10
1 -4 -3 -4 -4 -2 -1 0 0 1 2 3 2 1 1 -0 -8 -10 -12 -15 -18 -18 -17 -16 -15 -14 -14 -12 -11 -9 -8 -7 -7 -7 -6 -7 -7 -8 -8 -9 -10 -10 -10 -10
-2 -3 -2 -1 0 0 1 2 2 3 3 2 1 0 0 -3 -10 -13 -15 -18 -18 -16 -15 -15 -14 -13 -13 -12 -9 -8 -7 -7 -7 -7 -7 -7 -8 -8 -9 -9 -10 -10 -10 -10
-1 1 2 1 1 1 2 2 3 3 1 -3 -3 -0 -5 -11 -12 -15 -18 -17 -16 -15 -14 -13 -13 -13 -12 -9 -8 -7 -7 -7 -7 -8 -7 -8 -8 -8 -8 -9 -10 -10 -11 -10
2 2 2 2 2 3 3 3 1 -5 -2 -0 -2 -7 -12 -14 -16 -17 -16 -16 -15 -14 -12 -13 -13 -12 -10 -9 -8 -7 -7 -7 -7 -7 -7 -8 -8 -8 -9 -10 -10 -10 -11 -11
3 3 3 3 2 1 1 -3 -5 -0 -1 -4 -9 -12 -12 -16 -16 -16 -16 -15 -13 -12 -12 -12 -10 -9 -9 -8 -8 -7 -7 -7 -8 -7 -7 -8 -9 -9 -9 -9 -10 -10 -11 -11
3 2 0 -3 -3 -3 -1 -0 -1 -2 -7 -8 -8 -11 -16 -15 -15 -16 -15 -13 -11 -11 -10 -9 -9 -8 -8 -8 -8 -7 -7 -7 -7 -7 -7 -8 -8 -9 -10 -10 -10 -10 -11 -11
0 -1 -1 -1 -1 -2 -2 -3 -6 -6 -7 -10 -14 -18 -15 -14 -15 -14 -12 -11 -11 -10 -8 -8 -8 -8 -8 -7 -8 -8 -8 -8 -8 -7 -7 -8 -9 -10 -10 -11 -11 -10 -11 -10
-1 -1 -2 -2 -3 -4 -4 -6 -8 -11 -17 -20 -16 -13 -13 -14 -13 -12 -11 -9 -8 -7 -7 -7 -7 -8 -8 -7 -8 -8 -8 -8 -8 -8 -7 -7 -8 -10 -11 -10 -10 -10 -10 -11
-3 -4 -5 -8 -11 -12 -14 -18 -17 -15 -14 -12 -12 -13 -13 -12 -11 -11 -10 -8 -7 -6 -5 -5 -6 -7 -7 -8 -8 -8 -8 -9 -8 -8 -8 -7 -8 -8 -8 -9 -9 -9 -10 -10
-9 -10 -12 -13 -14 -14 -14 -14 -13 -12 -12 -13 -12 -11 -10 -9 -7 -6 -6 -7 -9 -5 -5 -5 -6 -8 -8 -8 -9 -9 -9 -9 -9 -9 -8 -8 -8 -8 -8 -8 -8 -9 -9 -9
-6 -7 -7 -10 -12 -13 -12 -12 -13 -13 -12 -11 -9 -8 -8 -9 -9 -9 -10 -9 -9 -6 -6 -6 -7 -8 -8 -8 -9 -9 -9 -9 -8 -8 -8 -7 -7 -7 -8 -8 -7 -8 -8 -8
-6 -9 -10 -9 -9 -8 -8 -8 -6 -6 -7 -8 -9 -10 -10 -11 -10 -8 -9 -9 -9 -8 -7 -8 -8 -8 -9 -9 -9 -8 -8 -8 -8 -9 -8 -8 -8 -8 -8 -8 -8 -8 -8 -8
-7 -7 -6 -6 -5 -6 -7 -8 -8 -8 -8 -8 -8 -7 -7 -8 -8 -7 -6 -7 -7 -6 -7 -8 -8 -8 -8 -9 -9 -9 -9 -9 -9 -9 -9 -9 -9 -10 -9 -9 -9 -9 -8 -8
-7 -7 -7 -8 -8 -7 -7 -7 -8 -7 -8 -8 -7 -6 -6 -5 -5 -6 -6 -7 -8 -8 -7 -7 -7 -8 -8 -9 -9 -10 -11 -12 -12 -12 -13 -13 -13 -12 -10 -10 -10 -9 -9 -9
-7 -8 -8 -8 -9 -10 -12 -13 -14 -14 -12 -11 -12 -11 -11 -10 -8 -7 -6 -8 -8 -9 -8 -7 -8 -8 -9 -9 -10 -13 -13 -13 -14 -14 -15 -16 -16 -16 -15 -12 -11 -9 -9 -9
-12 -13 -14 -16 -17 -17 -15 -14 -13 -13 -12 -11 -10 -9 -9 -9 -9 -9 -9 -7 -8 -8 -8 -8 -8 -9 -9 -10 -11 -13 -14 -14 -15 -16 -17 -17 -17 -16 -15 -13 -11 -11 -10 -9

GFSNGP_850_dewp_021.txt.gz
Dewpoint
1 1 -0 -3 -0 0 -1 -1 2 -1 -1 -3 -1 1 1 2 2 2 2 1 1 -0 -3 -5 -5 -1 -6 -7 -9 -11 -12 -10 -11 -11 -10 -9 -8 -9 -9 -9 -8 -8 -7 -7
2 1 1 1 -1 -1 1 0 -1 -1 -0 -3 -3 1 2 2 2 2 1 1 0 -2 -4 -6 -1 -5 -6 -9 -11 -12 -11 -10 -11 -10 -11 -9 -9 -9 -9 -9 -8 -6 -6 -7
1 0 -2 0 -1 -1 -1 -1 -0 1 -1 1 1 1 1 2 2 2 1 1 0 -3 -5 -4 -2 -7 -9 -11 -12 -11 -10 -12 -12 -14 -11 -9 -9 -10 -9 -8 -8 -7 -6 -7
1 -1 -0 -4 -2 -2 -1 -2 -2 -2 -2 -0 1 1 1 1 2 2 2 1 -0 -4 -5 -2 -8 -10 -11 -11 -11 -10 -14 -15 -17 -13 -10 -10 -10 -9 -8 -9 -9 -7 -8 -7
3 0 -3 -7 -5 -1 1 -2 -2 -2 -1 1 2 2 2 2 1 2 2 1 -1 -4 -6 -8 -10 -11 -11 -10 -11 -15 -18 -17 -14 -11 -12 -12 -8 -7 -7 -9 -8 -8 -8 -8
0 -0 -0 -4 -7 -2 -2 3 -2 -1 1 2 2 4 2 0 2 2 1 0 -2 -6 -7 -9 -11 -11 -10 -12 -18 -20 -18 -15 -14 -13 -14 -12 -6 -6 -7 -9 -8 -8 -8 -7
-1 3 -0 -4 -4 -2 1 1 -4 -0 -0 1 2 1 -2 -1 1 2 1 -2 -5 -7 -10 -11 -10 -10 -13 -19 -20 -18 -15 -15 -14 -15 -14 -11 -7 -6 -7 -10 -9 -8 -8 -8
0 1 2 -5 -0 2 -0 -3 -5 -1 -1 -1 -3 -2 0 0 1 1 -1 -2 -6 -7 -10 -10 -10 -14 -20 -20 -17 -16 -15 -14 -15 -14 -12 -9 -6 -7 -7 -9 -9 -8 -8 -9
1 2 -4 -4 -1 -3 -2 -2 -4 -2 -2 -1 -1 -1 0 0 0 -0 -2 -7 -4 -6 -10 -11 -16 -20 -19 -17 -16 -16 -15 -15 -15 -12 -11 -7 -6 -6 -6 -9 -8 -8 -8 -9
0 -2 -2 -3 -4 -4 -4 -3 -3 -2 -1 -0 0 1 1 1 -0 -4 -4 -2 -4 -9 -12 -17 -19 -18 -17 -16 -15 -15 -15 -14 -11 -9 -8 -6 -7 -6 -7 -10 -10 -8 -9 -9
1 -0 -2 -4 -4 -4 -3 -2 -2 -1 -0 -0 1 2 1 0 -6 -2 0 -4 -10 -12 -17 -19 -19 -18 -16 -15 -15 -14 -14 -11 -9 -9 -7 -7 -7 -7 -7 -9 -9 -9 -9 -10
3 -4 -3 -3 -3 -1 -0 -0 0 1 1 2 3 3 2 -4 -0 0 -7 -10 -14 -16 -19 -18 -17 -16 -15 -14 -14 -13 -11 -9 -9 -8 -8 -8 -7 -7 -8 -9 -9 -9 -11 -11
-2 -2 -1 -0 0 1 1 2 2 2 3 3 2 2 -2 0 -1 -9 -12 -10 -14 -19 -18 -16 -15 -14 -14 -14 -13 -11 -9 -8 -8 -8 -7 -7 -7 -7 -8 -8 -9 -9 -10 -11
3 2 2 2 2 2 2 2 2 2 1 0 -1 -0 -1 -4 -4 -5 -9 -16 -18 -17 -15 -14 -14 -14 -13 -12 -12 -10 -9 -8 -8 -8 -8 -7 -7 -7 -8 -8 -8 -9 -11 -10
2 2 3 3 3 2 1 -0 -2 -2 -1 -1 -2 -3 -4 -4 -5 -9 -16 -18 -16 -14 -13 -13 -13 -12 -12 -11 -9 -9 -8 -7 -7 -7 -7 -8 -7 -7 -8 -10 -9 -10 -11 -10
2 2 1 -0 -2 -2 -1 -1 -1 -1 -2 -3 -4 -3 -5 -8 -11 -15 -15 -15 -14 -13 -12 -13 -12 -11 -10 -9 -9 -8 -8 -8 -8 -8 -8 -8 -7 -7 -8 -9 -10 -10 -10 -10
1 -1 -1 -1 -1 -1 -1 -2 -3 -3 -3 -5 -7 -8 -10 -13 -14 -14 -14 -13 -13 -12 -11 -11 -10 -9 -8 -8 -8 -8 -8 -8 -8 -8 -8 -8 -8 -7 -8 -10 -10 -11 -11 -11
-1 -1 -1 -2 -2 -2 -3 -4 -6 -7 -9 -10 -10 -13 -15 -13 -11 -12 -11 -11 -12 -11 -10 -9 -7 -7 -6 -7 -7 -7 -8 -8 -8 -9 -9 -8 -8 -7 -8 -10 -11 -11 -11 -11
-2 -2 -3 -5 -6 -7 -9 -10 -10 -11 -12 -15 -14 -12 -11 -12 -11 -10 -10 -10 -11 -11 -10 -6 -6 -5 -5 -6 -7 -7 -7 -8 -9 -9 -9 -8 -8 -7 -7 -8 -9 -10 -10 -10
-8 -10 -10 -11 -9 -10 -12 -14 -14 -13 -13 -13 -13 -12 -12 -10 -8 -8 -8 -9 -9 -9 -7 -6 -5 -5 -6 -7 -8 -8 -8 -9 -9 -10 -9 -8 -8 -8 -8 -8 -9 -9 -9 -9
-7 -8 -9 -10 -11 -11 -11 -10 -10 -10 -10 -10 -9 -9 -8 -9 -9 -9 -9 -10 -11 -9 -9 -8 -5 -6 -7 -8 -8 -9 -8 -9 -9 -9 -9 -8 -8 -8 -8 -8 -8 -8 -8 -8
-5 -6 -8 -10 -9 -8 -8 -7 -7 -7 -7 -7 -7 -8 -8 -9 -9 -9 -9 -8 -8 -8 -8 -7 -6 -7 -8 -9 -9 -9 -9 -8 -9 -8 -9 -9 -8 -8 -8 -8 -8 -8 -8 -8
-9 -8 -7 -7 -7 -7 -6 -7 -7 -7 -8 -7 -7 -7 -6 -6 -5 -5 -5 -6 -6 -6 -6 -6 -7 -7 -7 -8 -8 -8 -9 -9 -9 -9 -9 -9 -9 -9 -9 -9 -9 -9 -9 -9
-6 -6 -6 -6 -6 -8 -10 -11 -10 -11 -11 -13 -15 -14 -13 -12 -12 -9 -8 -7 -7 -6 -6 -7 -7 -8 -8 -8 -8 -9 -9 -10 -10 -10 -11 -12 -13 -13 -14 -13 -13 -10 -10 -10
-6 -6 -8 -10 -12 -14 -16 -17 -18 -18 -18 -17 -17 -16 -15 -13 -9 -10 -10 -9 -9 -7 -7 -7 -8 -9 -8 -8 -9 -10 -10 -10 -11 -12 -13 -14 -15 -16 -16 -17 -16 -16 -14 -12
-9 -11 -13 -15 -15 -16 -15 -16 -16 -16 -17 -17 -17 -17 -17 -16 -14 -10 -10 -10 -9 -8 -8 -8 -8 -8 -8 -9 -9 -10 -10 -11 -11 -12 -14 -15 -17 -17 -17 -17 -17 -15 -13 -11
-12 -13 -14 -15 -15 -16 -16 -17 -18 -19 -20 -20 -20 -20 -18 -17 -15 -14 -11 -11 -10 -9 -9 -8 -9 -9 -10 -10 -10 -11 -11 -12 -12 -14 -16 -17 -18 -17 -17 -16 -15 -13 -11 -10